Regional Weather Roundup
Issued by NWS

Home | Current Version | Previous Version | Text Only | Print | Product List | Glossary Off
Versions: 1 2 3 4 5 6 7 8 9 10 11 12 13 14 15 16 17 18 19 20 21 22 23 24 25 26 27 28 29 30 31 32 33 34 35 36 37 38 39 40 41 42 43 44 45 46 47 48 49 50

000
ASUS45 KCYS 301010
RWRWY

WYOMING REGIONAL WEATHER ROUNDUP
NATIONAL WEATHER SERVICE CHEYENNE WY
400 AM MDT TUE JUN 30 2015

NOTE:  "FAIR" INDICATES FEW OR NO CLOUDS BELOW 12,000 FEET
WITH NO SIGNIFICANT WEATHER AND/OR OBSTRUCTIONS TO VISIBILITY.

WYZ001-301100-
YELLOWSTONE NATIONAL PARK

CITY           SKY/WX    TMP DP  RH WIND       PRES   REMARKS
LK YELLOWSTONE   N/A     56  49  77 CALM      30.40R
W YELLOWSTONE  NOT AVBL

$$
WYZ002>013-054>058-071-098>099-301100-
NORTHERN WYOMING

CITY           SKY/WX    TMP DP  RH WIND       PRES   REMARKS
JACKSON        FAIR      59  54  82 S3        30.31R
CODY           FAIR      73  52  46 W8        30.11S
GREYBULL       FAIR      75  53  46 VRB5      30.01F
WORLAND        FAIR      74  52  46 SE8       30.05F
SHERIDAN       FAIR      66  56  70 CALM      30.00F
BUFFALO        FAIR      71  48  43 S8        30.08F
GILLETTE       FAIR      67  54  63 CALM      30.05F
HULETT         FAIR      70  54  56 SW8       30.05S
NEWCASTLE      FAIR      63  54  72 CALM      30.08F

$$
WYZ014>020-022>026-101>103-301100-
CENTRAL WYOMING

CITY           SKY/WX    TMP DP  RH WIND       PRES   REMARKS
BIG PINEY      MOCLDY    68  43  40 N12       30.31S
PINEDALE       FAIR      61  45  55 W9        30.34S
DUBOIS         FAIR      59  46  63 CALM      30.32F
LANDER         FAIR      70  48  45 CALM      30.18F
RIVERTON       FAIR      68  48  48 SW7       30.18F
CASPER         FAIR      59  46  62 SW5       30.15F
DOUGLAS        FAIR      57  51  80 CALM      30.13F

$$
WYZ021-027>030-104>119-301100-
SOUTHERN WYOMING

CITY           SKY/WX    TMP DP  RH WIND       PRES   REMARKS
EVANSTON       FAIR      68  44  42 N7        30.31R
KEMMERER       FAIR      61  43  51 NW10      30.32R
FORT BRIDGER   SUNNY     64  43  45 W5        30.32R
ROCK SPRINGS   FAIR      67  39  35 SE8       30.25S
DIXON          FAIR      62  44  51 E8        30.28S
RAWLINS        FAIR      60  45  57 CALM      30.27F
SARATOGA       FAIR      54  45  71 CALM      30.30S
LARAMIE        FAIR      52  49  89 S8        30.30F
CHEYENNE       FAIR      57  44  62 W9        30.22F
TORRINGTON     FAIR      62  55  77 CALM      30.07F
PINE BLUFFS    FAIR      54  52  94 W3        30.16F

$$


USA.gov is the U.S. government's official web portal to all federal, state and local government web resources and services.